Find Aura

NORAD ID: 28376 Int'l Des: 2004-026 Owner: GSFC Country: US operational
LEOCIRCULARRETROGRADESSO

Live Position

Loading 3D Globe...

About Aura

Description loading...

Upcoming Passes

Passes for default location (London). Set your location on the main map for personalized predictions.

Altitude History

Loading altitude history...

Two-Line Element Set

1 28376U 04026A 26105.88043774 .00000428 00000-0 96687-4 0 9997
2 28376 98.3369 61.8415 0001600 90.7046 269.4338 14.61231107157110
Epoch: Apr 15, 2026 • Age: 13 hours

Current Status

Altitude 693.9 km
Velocity 7.51 km/s
Sub-Earth Point -8.85°S, 65.56°E
Launch Date Jul 15, 2004
Age 21.7 years
Type other

Technical Details

Classification Payload
Mass 3112.00 kg
Dry Mass 2978.00 kg
Total Mass 3112.00 kg
Length 6.90 m
Diameter 2.50 m
Span 17.40 m
Shape Box + Pan
Manufacturer NGST
Bus Type T-330
Phase Status In Orbit
Owner/State GSFC/US

Most Searched